Weather History for KLWT - July, 2014

Change the Weather History Date:

Thursday, July 17, 2014

  Actual Average Record
Temperature  
Mean Temperature 71 °F 66 °F  
Max Temperature 91 °F 81 °F 98 °F (1910)
Min Temperature 51 °F 51 °F 38 °F (1982)
Degree Days  
Heating Degree Days 0 2  
Month to date heating degree days 6 51  
Since 1 June heating degree days 292 278  
Since 1 July heating degree days 6 51  
Cooling Degree Days 6 3  
Month to date cooling degree days 75 41  
Year to date cooling degree days 76 63  
Since 1 June cooling degree days 76 61  
Growing Degree Days 22 (Base 50)    
Moisture  
Dew Point 46 °F    
Average Humidity 44    
Maximum Humidity 71    
Minimum Humidity 17    
Precipitation  
Precipitation 0.00 in 0.06 in 1.27 in (1987)
Month to date precipitation 0.52 1.17  
Year to date precipitation 8.62 10.51  
Snow  
Snow 0.00 in - - ()
Snow Depth 0.00 in    
Sea Level Pressure  
Sea Level Pressure 29.78 in    
Wind  
Wind Speed 5 mph (ESE)    
Max Wind Speed 14 mph    
Max Gust Speed 20 mph    
Visibility 10 miles    
Events      
T = Trace of Precipitation, MM = Missing Value Source: NWS Daily Summary

Daily Weather History Graph

Daily Weather History Graph

Search for Another Location

Airport or City:

Trip Planner

Search our weather history database for the weather conditions in past years. The results will help you decide how hot, cold, wet, or windy it might be!

Date:

Astronomy

Jul. 17, 2014 Rise Set
Actual Time 5:39 AM MDT 9:07 PM MDT
Civil Twilight 5:02 AM MDT 9:45 PM MDT
Nautical Twilight 4:12 AM MDT 10:35 PM MDT
Astronomical Twilight 3:06 AM MDT 11:40 PM MDT
Moon 11:59 PM MDT (7/17) 12:22 PM MDT (7/17)
Length of Visible Light 16h 43m
Length of Day
15h 27m
Waning Gibbous, 65% of the Moon is Illuminated
Jul 17
Waning Gibbous
Jul 18
Last Quarter
Jul 26
New
Aug 3
First Quarter
Aug 10
Full

Hourly Weather History & Observations

Time (MDT) Temp. Dew Point Humidity Pressure Visibility Wind Dir Wind Speed Gust Speed Precip Events Conditions
12:54 AM 57.9 °F 46.0 °F 65% 29.89 in 10.0 mi SE 5.8 mph - N/A   Clear
1:54 AM 54.0 °F 45.0 °F 72% 29.88 in 10.0 mi SE 6.9 mph - N/A   Clear
2:54 AM 54.0 °F 44.1 °F 69% 29.88 in 10.0 mi SE 6.9 mph - N/A   Clear
3:54 AM 53.1 °F 44.1 °F 71% 29.87 in 10.0 mi SE 6.9 mph - N/A   Clear
4:54 AM 52.0 °F 43.0 °F 71% 29.87 in 10.0 mi SE 6.9 mph - N/A   Clear
5:54 AM 52.0 °F 43.0 °F 71% 29.87 in 10.0 mi SE 6.9 mph - N/A   Clear
6:54 AM 55.9 °F 45.0 °F 67% 29.87 in 10.0 mi SE 6.9 mph - N/A   Clear
7:54 AM 62.1 °F 48.0 °F 60% 29.85 in 10.0 mi SE 5.8 mph - N/A   Clear
8:54 AM 70.0 °F 48.9 °F 47% 29.84 in 10.0 mi ESE 4.6 mph - N/A   Clear
9:54 AM 78.1 °F 48.9 °F 36% 29.85 in 10.0 mi Calm Calm - N/A   Clear
10:54 AM 82.0 °F 48.9 °F 31% 29.83 in 10.0 mi West 4.6 mph - N/A   Scattered Clouds
11:54 AM 84.9 °F 46.9 °F 27% 29.82 in 10.0 mi North 3.5 mph - N/A   Clear
12:54 PM 87.1 °F 39.9 °F 19% 29.79 in 8.0 mi NNE 4.6 mph - N/A   Partly Cloudy
1:54 PM 88.0 °F 37.0 °F 16% 29.77 in 8.0 mi ENE 5.8 mph - N/A   Clear
2:54 PM 90.0 °F 39.0 °F 17% 29.75 in 9.0 mi Variable 4.6 mph - N/A   Clear
3:54 PM 91.0 °F 42.1 °F 18% 29.73 in 10.0 mi Variable 3.5 mph - N/A   Clear
4:54 PM 88.0 °F 45.0 °F 22% 29.72 in 10.0 mi NNW 4.6 mph - N/A   Clear
5:54 PM 89.1 °F 45.0 °F 22% 29.70 in 10.0 mi NW 4.6 mph - N/A   Clear
6:54 PM 88.0 °F 44.1 °F 22% 29.68 in 10.0 mi Calm Calm - N/A   Clear
7:54 PM 84.9 °F 48.9 °F 29% 29.66 in 10.0 mi South 3.5 mph - N/A   Clear
8:54 PM 75.9 °F 55.0 °F 48% 29.65 in 10.0 mi South 8.1 mph - N/A   Clear
9:54 PM 70.0 °F 53.1 °F 55% 29.66 in 10.0 mi SE 6.9 mph - N/A   Clear
10:54 PM 66.0 °F 52.0 °F 60% 29.66 in 10.0 mi ESE 4.6 mph - N/A   Partly Cloudy
11:54 PM 68.0 °F 51.1 °F 55% 29.66 in 10.0 mi NW 5.8 mph - N/A   Partly Cloudy